Torna al catalogo

CZ-6A DEB

AttivoPO
NORAD 60763·DEBRIS·🇨🇳 China

Lanciato Aug 6, 2024 da Taiyuan Satellite Launch Center

Loading…

Prossimi Passaggi (prossime 24 ore)

TLE

AggiornatoSource: Space-Track

Epoca: Sep 14, 2026, 10:53 UTC

1 60763U 24140EN  26257.45350091  .00002754  00000-0  48712-3 0  9995
2 60763  89.0190 261.0439 0102759 286.8310  72.1654 14.63709505110825

Traccia CZ-6A DEB in tempo reale con AllMySat

Download on the App Store